ANZ162 YPPH-NZCH

Flight info

Callsign ANZ162
Flight time N/A
Altitude 37000
Route MEMUP Y87 TAPAX L513 TASUM/N0454F390 M643 KABIN L508 MOLGI
Aircraft A339/H-SADE1E2E3GHIJ3J5M1P2RWXY/LB2D1

Departure

Time 2026-04-27 16:12
Airport Perth International Airport (YPPH)

Arrival

Time N/A
Airport Christchurch International Airport (NZCH)
Time Latitude Longitude Altitude Speed Heading
2026-04-27 15:53 -31.94047 115.97317 61 ft 0 kts 151°
2026-04-27 15:59 -31.94044 115.97315 60 ft 2 kts 151°
2026-04-27 15:59 -31.94030 115.97306 59 ft 2 kts 151°
2026-04-27 16:00 -31.94017 115.97297 69 ft 2 kts 151°
2026-04-27 16:00 -31.94003 115.97288 58 ft 2 kts 151°
2026-04-27 16:00 -31.93990 115.97279 58 ft 2 kts 152°
2026-04-27 16:00 -31.93976 115.97270 58 ft 2 kts 179°
2026-04-27 16:01 -31.93960 115.97270 59 ft 2 kts 205°
2026-04-27 16:01 -31.93949 115.97276 57 ft 1 kts 221°
2026-04-27 16:01 -31.93941 115.97283 57 ft 1 kts 235°
2026-04-27 16:01 -31.93941 115.97284 57 ft 0 kts 236°
2026-04-27 16:04 -31.93951 115.97264 57 ft 5 kts 238°
2026-04-27 16:04 -31.93963 115.97221 56 ft 7 kts 256°
2026-04-27 16:04 -31.93961 115.97158 58 ft 9 kts 275°
2026-04-27 16:05 -31.93947 115.97082 59 ft 10 kts 282°
2026-04-27 16:05 -31.93931 115.96997 64 ft 10 kts 283°
2026-04-27 16:05 -31.93890 115.96931 55 ft 11 kts 322°
2026-04-27 16:05 -31.93816 115.96926 60 ft 11 kts
2026-04-27 16:06 -31.93740 115.96948 57 ft 11 kts 13°
2026-04-27 16:06 -31.93660 115.96970 57 ft 12 kts 13°
2026-04-27 16:06 -31.93571 115.96993 56 ft 14 kts 11°
2026-04-27 16:06 -31.93478 115.97017 59 ft 13 kts 14°
2026-04-27 16:07 -31.93390 115.97042 60 ft 13 kts 12°
2026-04-27 16:07 -31.93299 115.97073 56 ft 14 kts 17°
2026-04-27 16:07 -31.93197 115.97103 58 ft 16 kts 13°
2026-04-27 16:07 -31.93149 115.97116 56 ft 0 kts 12°
2026-04-27 16:09 -31.93134 115.97120 55 ft 7 kts 13°
2026-04-27 16:09 -31.93026 115.97152 54 ft 9 kts 11°
2026-04-27 16:09 -31.92966 115.97142 60 ft 9 kts 333°
2026-04-27 16:10 -31.92914 115.97007 56 ft 10 kts 286°
2026-04-27 16:10 -31.92896 115.96916 62 ft 0 kts 279°
2026-04-27 16:11 -31.92895 115.96907 61 ft 3 kts 278°
2026-04-27 16:11 -31.92919 115.96840 59 ft 6 kts 225°
2026-04-27 16:12 -31.93197 115.96759 55 ft 71 kts 189°
2026-04-27 16:12 -31.93908 115.96555 60 ft 137 kts 195°
2026-04-27 16:12 -31.96120 115.95806 1008 ft 168 kts 197°
2026-04-27 16:13 -31.97258 115.95430 1704 ft 175 kts 194°
2026-04-27 16:13 -31.99658 115.94775 2805 ft 199 kts 183°
2026-04-27 16:13 -32.01066 115.95049 3218 ft 213 kts 158°
2026-04-27 16:14 -32.03481 115.97548 3643 ft 258 kts 118°
2026-04-27 16:14 -32.04733 116.01644 4606 ft 271 kts 103°
2026-04-27 16:15 -32.05675 116.06006 5776 ft 277 kts 103°
2026-04-27 16:15 -32.07105 116.10286 6924 ft 285 kts 115°
2026-04-27 16:16 -32.08858 116.14534 8051 ft 291 kts 115°
2026-04-27 16:16 -32.10620 116.18888 9272 ft 297 kts 115°
2026-04-27 16:17 -32.12404 116.23300 10032 ft 302 kts 116°
2026-04-27 16:17 -32.14266 116.27906 10303 ft 327 kts 115°
2026-04-27 16:18 -32.16316 116.32992 10783 ft 354 kts 116°
2026-04-27 16:18 -32.18454 116.38302 11755 ft 362 kts 116°
2026-04-27 16:19 -32.19542 116.41006 12236 ft 367 kts 116°
2026-04-27 16:19 -32.20642 116.43740 12722 ft 371 kts 116°
2026-04-27 16:20 -32.24641 116.51725 14112 ft 383 kts 123°
2026-04-27 16:20 -32.26066 116.54405 14553 ft 387 kts 123°
2026-04-27 16:20 -32.28935 116.59830 15571 ft 389 kts 123°
2026-04-27 16:21 -32.30380 116.62565 15919 ft 396 kts 123°
2026-04-27 16:21 -32.34785 116.70916 17177 ft 407 kts 123°
2026-04-27 16:22 -32.36289 116.73771 17586 ft 411 kts 123°
2026-04-27 16:22 -32.39333 116.79558 18355 ft 418 kts 122°
2026-04-27 16:22 -32.40878 116.82498 18725 ft 422 kts 122°
2026-04-27 16:23 -32.42428 116.85451 19120 ft 424 kts 122°
2026-04-27 16:23 -32.45556 116.91420 19881 ft 430 kts 122°
2026-04-27 16:23 -32.47141 116.94441 20256 ft 434 kts 122°
2026-04-27 16:24 -32.48716 116.97448 20630 ft 437 kts 121°
2026-04-27 16:24 -32.51934 117.03606 21423 ft 442 kts 121°
2026-04-27 16:25 -32.54703 117.10070 22196 ft 446 kts 107°
2026-04-27 16:25 -32.56576 117.17122 22978 ft 452 kts 107°
2026-04-27 16:26 -32.58605 117.24236 23708 ft 459 kts 106°
2026-04-27 16:26 -32.60635 117.31449 24440 ft 463 kts 106°
2026-04-27 16:27 -32.62651 117.38708 25210 ft 465 kts 105°
2026-04-27 16:27 -32.65688 117.49728 26226 ft 472 kts 105°
2026-04-27 16:28 -32.67737 117.57171 26906 ft 476 kts 105°
2026-04-27 16:28 -32.69802 117.64682 27557 ft 481 kts 105°
2026-04-27 16:29 -32.72923 117.76084 28526 ft 487 kts 105°
2026-04-27 16:30 -32.75023 117.83775 29107 ft 492 kts 105°
2026-04-27 16:30 -32.77135 117.91533 29703 ft 496 kts 105°
2026-04-27 16:31 -32.80327 118.03302 30567 ft 501 kts 105°
2026-04-27 16:31 -32.82468 118.11223 31137 ft 504 kts 106°
2026-04-27 16:32 -32.84618 118.19195 31656 ft 508 kts 105°
2026-04-27 16:32 -32.85694 118.23202 31902 ft 510 kts 105°
2026-04-27 16:33 -32.87845 118.31223 32404 ft 514 kts 106°
2026-04-27 16:33 -32.88949 118.35338 32623 ft 516 kts 106°
2026-04-27 16:33 -32.90025 118.39358 32807 ft 518 kts 105°
2026-04-27 16:33 -32.91114 118.43442 32977 ft 519 kts 105°
2026-04-27 16:34 -32.92209 118.47545 33159 ft 521 kts 105°
2026-04-27 16:34 -32.93305 118.51668 33307 ft 522 kts 105°
2026-04-27 16:34 -32.94397 118.55790 33440 ft 523 kts 105°
2026-04-27 16:34 -32.95499 118.59929 33581 ft 524 kts 105°
2026-04-27 16:35 -32.96597 118.64066 33742 ft 524 kts 105°
2026-04-27 16:35 -32.97894 118.68131 33873 ft 526 kts 112°
2026-04-27 16:35 -33.00825 118.76116 34105 ft 528 kts 112°
2026-04-27 16:36 -33.02299 118.80128 34243 ft 529 kts 112°
2026-04-27 16:36 -33.03768 118.84147 34370 ft 529 kts 112°
2026-04-27 16:36 -33.05231 118.88168 34491 ft 529 kts 112°
2026-04-27 16:36 -33.06692 118.92196 34616 ft 529 kts 112°
2026-04-27 16:37 -33.08151 118.96230 34716 ft 530 kts 112°
2026-04-27 16:37 -33.09606 119.00257 34900 ft 528 kts 112°
2026-04-27 16:37 -33.11059 119.04285 35021 ft 529 kts 112°
2026-04-27 16:37 -33.12512 119.08316 35136 ft 529 kts 112°
2026-04-27 16:38 -33.13965 119.12356 35271 ft 530 kts 112°
2026-04-27 16:38 -33.15415 119.16391 35383 ft 530 kts 112°
2026-04-27 16:38 -33.16870 119.20441 35502 ft 530 kts 112°
2026-04-27 16:38 -33.18302 119.24434 35629 ft 531 kts 112°
2026-04-27 16:39 -33.19772 119.28533 35739 ft 530 kts 112°
2026-04-27 16:39 -33.21222 119.32583 35862 ft 531 kts 112°
2026-04-27 16:39 -33.22671 119.36639 35959 ft 531 kts 112°
2026-04-27 16:39 -33.24101 119.40646 36063 ft 532 kts 112°
2026-04-27 16:40 -33.25549 119.44709 36178 ft 532 kts 112°
2026-04-27 16:40 -33.26999 119.48782 36291 ft 533 kts 112°
2026-04-27 16:40 -33.28449 119.52861 36383 ft 533 kts 112°
2026-04-27 16:40 -33.29898 119.56939 36500 ft 533 kts 112°
2026-04-27 16:41 -33.31346 119.61018 36604 ft 533 kts 112°
2026-04-27 16:41 -33.34243 119.69199 36812 ft 534 kts 112°
2026-04-27 16:41 -33.35689 119.73288 36913 ft 535 kts 112°
2026-04-27 16:42 -33.37136 119.77389 37015 ft 535 kts 112°
2026-04-27 16:42 -33.40025 119.85589 37096 ft 535 kts 112°
2026-04-27 16:43 -33.42916 119.93813 37072 ft 536 kts 112°
2026-04-27 16:43 -33.45313 120.00650 37073 ft 535 kts 112°
2026-04-27 16:44 -33.48190 120.08874 37072 ft 535 kts 112°
2026-04-27 16:44 -33.51521 120.18424 37072 ft 533 kts 112°
2026-04-27 16:45 -33.54374 120.26621 37056 ft 533 kts 112°
2026-04-27 16:45 -33.56759 120.33491 37048 ft 532 kts 111°
2026-04-27 16:46 -33.59596 120.41686 37042 ft 532 kts 111°
2026-04-27 16:46 -33.62426 120.49879 37056 ft 531 kts 111°
2026-04-27 16:47 -33.65246 120.58064 37051 ft 531 kts 111°
2026-04-27 16:47 -33.68066 120.66271 37041 ft 532 kts 111°
2026-04-27 16:48 -33.70880 120.74481 37041 ft 532 kts 111°
2026-04-27 16:48 -33.73695 120.82714 37044 ft 533 kts 111°
2026-04-27 16:49 -33.77275 120.90473 37045 ft 532 kts 127°
2026-04-27 16:49 -33.79530 120.93929 37057 ft 532 kts 130°
2026-04-27 16:49 -33.84117 121.00932 37058 ft 536 kts 130°
2026-04-27 16:50 -33.88732 121.08011 37052 ft 538 kts 130°
2026-04-27 16:50 -33.93343 121.15092 37053 ft 537 kts 130°
2026-04-27 16:51 -33.97949 121.22185 37050 ft 536 kts 130°
2026-04-27 16:51 -34.02540 121.29281 37045 ft 538 kts 130°
2026-04-27 16:52 -34.07148 121.36404 37061 ft 540 kts 130°
2026-04-27 16:52 -34.11755 121.43528 37048 ft 537 kts 130°
2026-04-27 16:53 -34.16346 121.50644 37048 ft 537 kts 130°
2026-04-27 16:53 -34.20935 121.57775 37047 ft 538 kts 130°
2026-04-27 16:54 -34.25518 121.64916 37072 ft 538 kts 130°
2026-04-27 16:54 -34.30095 121.72062 37049 ft 537 kts 130°
2026-04-27 16:55 -34.34660 121.79203 37046 ft 536 kts 130°
2026-04-27 16:55 -34.39216 121.86344 37037 ft 536 kts 130°
2026-04-27 16:56 -34.43769 121.93493 37044 ft 536 kts 130°
2026-04-27 16:56 -34.48237 122.00525 37045 ft 536 kts 130°
2026-04-27 16:57 -34.52778 122.07684 37023 ft 536 kts 130°
2026-04-27 16:57 -34.57308 122.14855 37052 ft 536 kts 129°
2026-04-27 16:58 -34.61834 122.22037 37049 ft 535 kts 129°
2026-04-27 16:58 -34.66362 122.29211 37048 ft 535 kts 130°
2026-04-27 16:59 -34.70894 122.36386 37061 ft 535 kts 130°
2026-04-27 16:59 -34.75407 122.43568 37062 ft 534 kts 130°
2026-04-27 17:00 -34.82164 122.54358 37058 ft 534 kts 129°
2026-04-27 17:01 -34.86664 122.61561 37074 ft 535 kts 129°
2026-04-27 17:01 -34.91155 122.68767 37064 ft 534 kts 129°
2026-04-27 17:02 -34.95638 122.75974 37065 ft 533 kts 129°
2026-04-27 17:02 -35.00117 122.83187 37077 ft 533 kts 129°
2026-04-27 17:03 -35.04582 122.90410 37068 ft 533 kts 129°
2026-04-27 17:03 -35.09044 122.97631 37072 ft 532 kts 129°
2026-04-27 17:04 -35.13498 123.04854 37066 ft 532 kts 129°
2026-04-27 17:04 -35.17958 123.12076 37058 ft 533 kts 129°
2026-04-27 17:05 -35.22411 123.19304 37073 ft 532 kts 129°
2026-04-27 17:05 -35.26851 123.26542 37079 ft 532 kts 129°
2026-04-27 17:06 -35.31255 123.33740 37080 ft 532 kts 129°
2026-04-27 17:06 -35.35710 123.41036 37079 ft 532 kts 129°
2026-04-27 17:07 -35.40101 123.48251 37080 ft 531 kts 129°
2026-04-27 17:07 -35.44523 123.55517 37083 ft 532 kts 129°
2026-04-27 17:08 -35.48934 123.62779 37081 ft 532 kts 129°
2026-04-27 17:08 -35.53352 123.70073 37067 ft 532 kts 128°
2026-04-27 17:09 -35.57759 123.77364 37083 ft 531 kts 128°
2026-04-27 17:09 -35.62159 123.84660 37085 ft 531 kts 128°
2026-04-27 17:10 -35.66551 123.91958 37091 ft 531 kts 128°
2026-04-27 17:10 -35.70946 123.99274 37089 ft 531 kts 128°
2026-04-27 17:11 -35.75329 124.06601 37087 ft 532 kts 128°
2026-04-27 17:11 -35.81904 124.17593 37099 ft 532 kts 128°
2026-04-27 17:12 -35.88452 124.28569 37100 ft 532 kts 128°
2026-04-27 17:13 -35.92825 124.35935 37105 ft 532 kts 128°
2026-04-27 17:13 -35.97191 124.43299 37107 ft 532 kts 128°
2026-04-27 17:14 -36.01566 124.50684 37109 ft 532 kts 128°
2026-04-27 17:14 -36.05929 124.58078 37110 ft 533 kts 128°
2026-04-27 17:15 -36.10293 124.65480 37113 ft 533 kts 128°
2026-04-27 17:15 -36.14579 124.72766 37115 ft 533 kts 127°
2026-04-27 17:16 -36.18970 124.80252 37117 ft 533 kts 127°
2026-04-27 17:16 -36.23295 124.87634 37120 ft 533 kts 127°
2026-04-27 17:17 -36.27650 124.95080 37115 ft 534 kts 127°
2026-04-27 17:17 -36.31625 125.02834 37115 ft 534 kts 115°
2026-04-27 17:18 -36.36764 125.15018 37127 ft 535 kts 118°
2026-04-27 17:18 -36.40233 125.23198 37123 ft 536 kts 118°
2026-04-27 17:19 -36.43681 125.31389 37122 ft 536 kts 118°
2026-04-27 17:19 -36.47115 125.39602 37144 ft 536 kts 117°
2026-04-27 17:20 -36.50543 125.47836 37133 ft 537 kts 117°
2026-04-27 17:20 -36.53964 125.56079 37133 ft 536 kts 117°
2026-04-27 17:21 -36.57380 125.64330 37136 ft 536 kts 117°
2026-04-27 17:21 -36.60793 125.72591 37133 ft 538 kts 117°
2026-04-27 17:22 -36.64205 125.80871 37136 ft 537 kts 117°
2026-04-27 17:22 -36.67606 125.89149 37143 ft 537 kts 117°
2026-04-27 17:23 -36.71001 125.97431 37131 ft 538 kts 117°
2026-04-27 17:23 -36.74394 126.05741 37135 ft 538 kts 116°
2026-04-27 17:24 -36.77784 126.14061 37141 ft 538 kts 117°
2026-04-27 17:24 -36.81177 126.22382 37141 ft 538 kts 117°
2026-04-27 17:25 -36.84535 126.30653 37136 ft 537 kts 116°
2026-04-27 17:25 -36.87901 126.38976 37136 ft 537 kts 116°
2026-04-27 17:26 -36.91263 126.47313 37138 ft 538 kts 116°
2026-04-27 17:26 -36.94627 126.55668 37134 ft 538 kts 116°
2026-04-27 17:27 -36.97980 126.64018 37137 ft 538 kts 116°
2026-04-27 17:27 -37.01330 126.72386 37146 ft 538 kts 116°
2026-04-27 17:28 -37.04677 126.80778 37129 ft 539 kts 116°
2026-04-27 17:29 -37.09696 126.93382 37133 ft 539 kts 116°
2026-04-27 17:29 -37.13037 127.01796 37135 ft 540 kts 116°
2026-04-27 17:30 -37.16374 127.10230 37137 ft 540 kts 116°
2026-04-27 17:30 -37.21367 127.22893 37162 ft 540 kts 116°
2026-04-27 17:31 -37.24693 127.31357 37139 ft 541 kts 116°
2026-04-27 17:31 -37.28005 127.39824 37144 ft 541 kts 116°
2026-04-27 17:32 -37.32421 127.51111 37140 ft 541 kts 115°
2026-04-27 17:33 -37.35728 127.59600 37143 ft 541 kts 115°
2026-04-27 17:33 -37.39031 127.68104 37148 ft 541 kts 115°
2026-04-27 17:34 -37.42330 127.76619 37143 ft 541 kts 115°
2026-04-27 17:34 -37.45622 127.85142 37147 ft 541 kts 115°
2026-04-27 17:35 -37.48904 127.93672 37149 ft 541 kts 115°
2026-04-27 17:35 -37.52185 128.02207 37156 ft 541 kts 115°
2026-04-27 17:36 -37.55450 128.10746 37149 ft 541 kts 115°
2026-04-27 17:36 -37.58726 128.19294 37125 ft 541 kts 115°
2026-04-27 17:37 -37.61984 128.27837 37139 ft 541 kts 115°
2026-04-27 17:37 -37.65231 128.36406 37146 ft 541 kts 115°
2026-04-27 17:38 -37.68475 128.44977 37147 ft 541 kts 115°
2026-04-27 17:38 -37.71728 128.53558 37138 ft 543 kts 115°
2026-04-27 17:39 -37.74953 128.62107 37141 ft 542 kts 115°
2026-04-27 17:39 -37.78200 128.70755 37150 ft 540 kts 115°
2026-04-27 17:40 -37.81394 128.79280 37155 ft 540 kts 115°
2026-04-27 17:40 -37.84601 128.87861 37148 ft 539 kts 115°
2026-04-27 17:41 -37.87797 128.96441 37144 ft 539 kts 115°
2026-04-27 17:41 -37.90990 129.05042 37131 ft 540 kts 115°
2026-04-27 17:42 -37.94184 129.13660 37135 ft 541 kts 115°
2026-04-27 17:42 -37.97374 129.22290 37142 ft 541 kts 114°
2026-04-27 17:43 -38.00561 129.30944 37146 ft 542 kts 114°
2026-04-27 17:43 -38.03742 129.39601 37145 ft 542 kts 114°
2026-04-27 17:44 -38.06920 129.48280 37150 ft 542 kts 114°
2026-04-27 17:44 -38.10094 129.56968 37152 ft 543 kts 114°
2026-04-27 17:45 -38.13261 129.65666 37155 ft 543 kts 114°
2026-04-27 17:45 -38.16425 129.74381 37162 ft 543 kts 114°
2026-04-27 17:46 -38.19584 129.83100 37168 ft 543 kts 114°
2026-04-27 17:46 -38.22739 129.91824 37150 ft 543 kts 114°
2026-04-27 17:47 -38.25785 130.00611 37139 ft 542 kts 107°
2026-04-27 17:47 -38.28429 130.09567 37139 ft 542 kts 117°
2026-04-27 17:48 -38.31929 130.18007 37168 ft 543 kts 117°
2026-04-27 17:48 -38.35218 130.26674 37154 ft 544 kts 115°
2026-04-27 17:49 -38.38361 130.35459 37150 ft 545 kts 114°
2026-04-27 17:49 -38.41479 130.44269 37161 ft 545 kts 114°
2026-04-27 17:50 -38.44605 130.53089 37155 ft 546 kts 114°
2026-04-27 17:50 -38.49280 130.66362 37156 ft 547 kts 114°
2026-04-27 17:51 -38.52396 130.75218 37151 ft 547 kts 114°
2026-04-27 17:51 -38.55506 130.84089 37163 ft 547 kts 114°
2026-04-27 17:52 -38.58601 130.92965 37148 ft 547 kts 114°
2026-04-27 17:52 -38.61695 131.01846 37145 ft 547 kts 114°
2026-04-27 17:53 -38.64776 131.10735 37156 ft 547 kts 114°
2026-04-27 17:53 -38.67849 131.19628 37166 ft 546 kts 114°
2026-04-27 17:54 -38.70926 131.28524 37164 ft 546 kts 114°
2026-04-27 17:54 -38.73989 131.37428 37158 ft 546 kts 114°
2026-04-27 17:55 -38.77041 131.46339 37159 ft 546 kts 114°
2026-04-27 17:55 -38.80088 131.55247 37162 ft 546 kts 114°
2026-04-27 17:56 -38.83103 131.64103 37159 ft 545 kts 114°
2026-04-27 17:56 -38.86132 131.73013 37157 ft 545 kts 114°
2026-04-27 17:57 -38.89156 131.81936 37153 ft 545 kts 114°
2026-04-27 17:57 -38.92162 131.90854 37175 ft 543 kts 113°
2026-04-27 17:58 -38.95159 131.99753 37166 ft 543 kts 113°
2026-04-27 17:58 -38.98148 132.08660 37162 ft 542 kts 113°
2026-04-27 17:59 -39.01127 132.17565 37164 ft 542 kts 113°
2026-04-27 17:59 -39.04094 132.26472 37152 ft 542 kts 113°
2026-04-27 18:00 -39.07056 132.35384 37157 ft 542 kts 113°
2026-04-27 18:00 -39.10012 132.44301 37147 ft 542 kts 113°
2026-04-27 18:01 -39.12954 132.53227 37153 ft 542 kts 113°
2026-04-27 18:01 -39.15896 132.62160 37163 ft 541 kts 113°
2026-04-27 18:02 -39.18832 132.71095 37178 ft 541 kts 113°
2026-04-27 18:02 -39.21758 132.80036 37168 ft 541 kts 113°
2026-04-27 18:03 -39.24681 132.88990 37163 ft 542 kts 113°
2026-04-27 18:03 -39.27595 132.97952 37167 ft 541 kts 113°
2026-04-27 18:04 -39.30479 133.06847 37158 ft 541 kts 112°
2026-04-27 18:04 -39.33375 133.15811 37177 ft 541 kts 112°
2026-04-27 18:05 -39.36263 133.24780 37171 ft 540 kts 112°
2026-04-27 18:05 -39.39142 133.33753 37180 ft 541 kts 112°
2026-04-27 18:06 -39.42016 133.42735 37169 ft 541 kts 112°
2026-04-27 18:06 -39.44883 133.51725 37157 ft 541 kts 112°
2026-04-27 18:07 -39.47743 133.60726 37152 ft 541 kts 112°
2026-04-27 18:07 -39.50597 133.69735 37161 ft 541 kts 112°
2026-04-27 18:08 -39.53443 133.78744 37178 ft 540 kts 112°
2026-04-27 18:08 -39.56284 133.87769 37172 ft 541 kts 112°
2026-04-27 18:09 -39.59117 133.96799 37165 ft 541 kts 112°
2026-04-27 18:09 -39.61916 134.05786 37151 ft 541 kts 112°
2026-04-27 18:10 -39.64736 134.14814 37177 ft 540 kts 112°
2026-04-27 18:10 -39.67545 134.23849 37178 ft 539 kts 112°
2026-04-27 18:11 -39.70345 134.32873 37177 ft 539 kts 112°
2026-04-27 18:11 -39.73134 134.41909 37176 ft 539 kts 112°
2026-04-27 18:12 -39.75907 134.50944 37154 ft 539 kts 112°
2026-04-27 18:12 -39.78681 134.59979 37155 ft 538 kts 112°
2026-04-27 18:13 -39.81446 134.69025 37169 ft 538 kts 112°
2026-04-27 18:13 -39.84203 134.78084 37183 ft 538 kts 112°
2026-04-27 18:14 -39.86956 134.87142 37179 ft 538 kts 112°
2026-04-27 18:14 -39.89707 134.96199 37167 ft 538 kts 112°
2026-04-27 18:15 -39.91870 135.05505 37151 ft 537 kts 108°
2026-04-27 18:15 -39.94783 135.14440 37165 ft 536 kts 116°
2026-04-27 18:16 -39.97781 135.23347 37189 ft 536 kts 113°
2026-04-27 18:16 -40.00545 135.32373 37184 ft 536 kts 112°
2026-04-27 18:17 -40.03237 135.41426 37184 ft 535 kts 112°
2026-04-27 18:17 -40.05915 135.50477 37189 ft 535 kts 112°
2026-04-27 18:18 -40.08568 135.59467 37179 ft 534 kts 112°
2026-04-27 18:18 -40.11247 135.68586 37169 ft 534 kts 112°
2026-04-27 18:19 -40.13884 135.77575 37172 ft 533 kts 112°
2026-04-27 18:19 -40.16534 135.86632 37180 ft 533 kts 112°
2026-04-27 18:20 -40.19175 135.95688 37176 ft 533 kts 111°
2026-04-27 18:20 -40.21807 136.04757 37177 ft 533 kts 111°
2026-04-27 18:21 -40.24431 136.13831 37182 ft 533 kts 111°
2026-04-27 18:21 -40.27046 136.22910 37179 ft 533 kts 111°
2026-04-27 18:22 -40.29202 136.30411 37178 ft 532 kts 111°
2026-04-27 18:22 -40.31809 136.39536 37180 ft 532 kts 111°
2026-04-27 18:23 -40.34402 136.48609 37197 ft 531 kts 111°
2026-04-27 18:23 -40.36985 136.57672 37186 ft 530 kts 111°
2026-04-27 18:24 -40.39552 136.66730 37181 ft 530 kts 111°
2026-04-27 18:24 -40.42111 136.75791 37166 ft 530 kts 111°
2026-04-27 18:25 -40.44663 136.84861 37165 ft 530 kts 111°
2026-04-27 18:25 -40.47206 136.93933 37175 ft 529 kts 111°
2026-04-27 18:26 -40.49742 137.03009 37195 ft 529 kts 111°
2026-04-27 18:26 -40.52267 137.12097 37195 ft 529 kts 111°
2026-04-27 18:27 -40.54793 137.21195 37177 ft 530 kts 111°
2026-04-27 18:27 -40.57314 137.30299 37166 ft 530 kts 111°
2026-04-27 18:28 -40.59825 137.39408 37170 ft 530 kts 111°
2026-04-27 18:28 -40.62328 137.48529 37181 ft 530 kts 111°
2026-04-27 18:29 -40.64825 137.57661 37192 ft 530 kts 110°
2026-04-27 18:29 -40.67310 137.66798 37192 ft 530 kts 110°
2026-04-27 18:30 -40.69787 137.75932 37192 ft 529 kts 111°
2026-04-27 18:30 -40.72266 137.85073 37186 ft 529 kts 110°
2026-04-27 18:31 -40.74729 137.94209 37193 ft 529 kts 110°
2026-04-27 18:31 -40.77170 138.03295 37201 ft 529 kts 110°
2026-04-27 18:32 -40.79619 138.12447 37182 ft 529 kts 110°
2026-04-27 18:32 -40.82060 138.21608 37175 ft 529 kts 110°
2026-04-27 18:33 -40.84495 138.30778 37183 ft 529 kts 110°
2026-04-27 18:33 -40.86925 138.39962 37210 ft 529 kts 110°
2026-04-27 18:34 -40.89341 138.49146 37212 ft 529 kts 110°
2026-04-27 18:34 -40.91756 138.58344 37195 ft 529 kts 110°
2026-04-27 18:35 -40.94165 138.67534 37192 ft 529 kts 110°
2026-04-27 18:35 -40.96566 138.76743 37194 ft 529 kts 110°
2026-04-27 18:36 -40.98949 138.85962 37199 ft 529 kts 110°
2026-04-27 18:36 -41.01339 138.95170 37213 ft 528 kts 110°
2026-04-27 18:37 -41.03714 139.04369 37200 ft 528 kts 110°
2026-04-27 18:37 -41.06076 139.13570 37218 ft 527 kts 110°
2026-04-27 18:38 -41.08428 139.22767 37220 ft 527 kts 110°
2026-04-27 18:38 -41.10766 139.31976 37198 ft 527 kts 110°
2026-04-27 18:39 -41.13096 139.41179 37186 ft 527 kts 110°
2026-04-27 18:39 -41.15430 139.50390 37187 ft 527 kts 110°
2026-04-27 18:40 -41.17749 139.59599 37197 ft 526 kts 110°
2026-04-27 18:40 -41.20068 139.68817 37204 ft 526 kts 110°
2026-04-27 18:41 -41.22361 139.78008 37197 ft 526 kts 109°
2026-04-27 18:41 -41.24660 139.87231 37199 ft 526 kts 110°
2026-04-27 18:42 -41.26585 139.94974 37205 ft 526 kts 109°
2026-04-27 18:42 -41.29240 140.05720 37201 ft 527 kts 109°
2026-04-27 18:43 -41.31517 140.14983 37203 ft 527 kts 109°
2026-04-27 18:43 -41.33787 140.24250 37204 ft 527 kts 109°
2026-04-27 18:44 -41.36046 140.33522 37203 ft 527 kts 109°
2026-04-27 18:44 -41.38303 140.42799 37205 ft 527 kts 109°
2026-04-27 18:45 -41.40552 140.52086 37205 ft 527 kts 109°
2026-04-27 18:45 -41.42793 140.61384 37210 ft 527 kts 109°
2026-04-27 18:46 -41.45023 140.70676 37209 ft 526 kts 109°
2026-04-27 18:46 -41.47249 140.79971 37207 ft 526 kts 109°
2026-04-27 18:47 -41.49468 140.89272 37218 ft 526 kts 109°
2026-04-27 18:47 -41.51660 140.98509 37209 ft 526 kts 107°
2026-04-27 18:48 -41.53234 141.08025 37209 ft 524 kts 110°
2026-04-27 18:48 -41.55774 141.17131 37205 ft 524 kts 112°
2026-04-27 18:49 -41.58160 141.26328 37211 ft 525 kts 109°
2026-04-27 18:49 -41.60364 141.35635 37212 ft 525 kts 109°
2026-04-27 18:50 -41.62521 141.44951 37194 ft 525 kts 109°
2026-04-27 18:50 -41.64681 141.54261 37215 ft 524 kts 109°
2026-04-27 18:51 -41.66826 141.63564 37223 ft 523 kts 109°
2026-04-27 18:51 -41.68960 141.72870 37216 ft 523 kts 109°
2026-04-27 18:52 -41.71082 141.82171 37212 ft 523 kts 109°
2026-04-27 18:53 -41.74253 141.96130 37213 ft 522 kts 109°
2026-04-27 18:53 -41.76356 142.05438 37217 ft 522 kts 109°
2026-04-27 18:54 -41.78451 142.14750 37212 ft 522 kts 108°
2026-04-27 18:54 -41.80528 142.24072 37214 ft 522 kts 109°
2026-04-27 18:55 -41.82613 142.33385 37217 ft 522 kts 109°
2026-04-27 18:55 -41.84689 142.42708 37215 ft 522 kts 109°
2026-04-27 18:56 -41.86751 142.52039 37221 ft 522 kts 108°
2026-04-27 18:56 -41.88803 142.61370 37216 ft 521 kts 108°
2026-04-27 18:57 -41.90839 142.70643 37215 ft 521 kts 108°
2026-04-27 18:57 -41.92895 142.80041 37231 ft 521 kts 109°
2026-04-27 18:58 -41.94905 142.89311 37222 ft 520 kts 108°
2026-04-27 18:58 -41.96913 142.98621 37216 ft 520 kts 108°
2026-04-27 18:59 -41.98929 143.07948 37219 ft 520 kts 109°
2026-04-27 18:59 -42.00940 143.17280 37223 ft 519 kts 108°
2026-04-27 19:00 -42.02933 143.26607 37221 ft 519 kts 109°
2026-04-27 19:00 -42.04920 143.35946 37220 ft 519 kts 108°
2026-04-27 19:01 -42.06891 143.45291 37218 ft 519 kts 108°
2026-04-27 19:01 -42.08854 143.54634 37215 ft 519 kts 108°
2026-04-27 19:02 -42.10824 143.63980 37220 ft 519 kts 108°
2026-04-27 19:02 -42.12780 143.73333 37220 ft 519 kts 108°
2026-04-27 19:03 -42.14731 143.82698 37225 ft 519 kts 108°
2026-04-27 19:03 -42.16664 143.92062 37223 ft 519 kts 108°
2026-04-27 19:04 -42.18599 144.01431 37225 ft 519 kts 108°
2026-04-27 19:04 -42.20521 144.10800 37231 ft 518 kts 108°
2026-04-27 19:05 -42.22427 144.20147 37230 ft 514 kts 108°
2026-04-27 19:05 -42.24319 144.29463 37230 ft 515 kts 108°
2026-04-27 19:06 -42.26207 144.38781 37230 ft 515 kts 108°
2026-04-27 19:06 -42.28084 144.48108 37231 ft 514 kts 108°
2026-04-27 19:07 -42.29951 144.57434 37232 ft 514 kts 108°